This is the latest recevied weather packets stored in our database for station/object OE3FJB-25. If no packets are shown the sender has not sent any weather packets the latest 10 day(s).
| Time | Temp. | Humidity | Pressure | Rain* | Wind** | Luminosity | Snow |
|---|---|---|---|---|---|---|---|
| 1777738846 | 18.89° C | 31% | 1023.4 hPa | - | - | - | - |
| 1777738248 | 19.44° C | 31% | 1023.4 hPa | - | - | - | - |
| 1777737649 | 19.44° C | 30% | 1023.5 hPa | - | - | - | - |
| 1777737051 | 20° C | 30% | 1023.7 hPa | - | - | - | - |
| 1777736452 | 20° C | 30% | 1023.7 hPa | - | - | - | - |
| 1777735853 | 20° C | 29% | 1023.9 hPa | - | - | - | - |
| 1777735255 | 20.56° C | 29% | 1023.9 hPa | - | - | - | - |
| 1777734656 | 20.56° C | 28% | 1024 hPa | - | - | - | - |
| 1777734058 | 21.11° C | 27% | 1024.2 hPa | - | - | - | - |
| 1777733459 | 21.11° C | 26% | 1024.2 hPa | - | - | - | - |
| 1777732860 | 21.67° C | 25% | 1024.3 hPa | - | - | - | - |
| 1777732262 | 21.11° C | 25% | 1024.4 hPa | - | - | - | - |
| 1777731663 | 21.11° C | 25% | 1024.5 hPa | - | - | - | - |
| 1777731065 | 21.11° C | 26% | 1024.5 hPa | - | - | - | - |
| 1777730466 | 21.11° C | 26% | 1024.6 hPa | - | - | - | - |
| 1777729868 | 20.56° C | 26% | 1024.6 hPa | - | - | - | - |
| 1777729269 | 21.11° C | 26% | 1024.8 hPa | - | - | - | - |
| 1777728671 | 20.56° C | 25% | 1024.9 hPa | - | - | - | - |
| 1777728072 | 21.11° C | 25% | 1025 hPa | - | - | - | - |
| 1777727473 | 21.11° C | 25% | 1025.1 hPa | - | - | - | - |
| 1777726875 | 21.11° C | 25% | 1025.2 hPa | - | - | - | - |
| 1777725678 | 21.11° C | 25% | 1025.3 hPa | - | - | - | - |
| 1777725079 | 21.11° C | 25% | 1025.5 hPa | - | - | - | - |
| 1777724481 | 21.11° C | 26% | 1025.6 hPa | - | - | - | - |
| 1777723882 | 21.11° C | 25% | 1025.8 hPa | - | - | - | - |
* Rain since midnight (hover to see other rain measurements)
** Current wind speed in m/s (hover to see current wind gust speed)